Location: Drummondville
(45.8830°N, 72.4830°W)
Time: 08:07:36
(UTC-05:00)

Tiangong 1 - Pass Details

Date: 10 November 2017
Orbit: 284 x 308 km, 42.8° (Epoch: 23 November)

Event Time Altitude Azimuth Distance (km) Brightness Sun altitude
Exits shadow 06:02:02 - 251° (WSW) 1,352 3.3 -7.6°
Reaches altitude 10° 06:02:48 10° 239° (WSW) 1,141 3.1 -7.4°
Maximum altitude 06:04:14 14° 204° (SSW) 960 3.0 -7.2°
Drops below altitude 10° 06:05:41 10° 170° (S) 1,148 3.9 -7.0°
Sets 06:08:13 0° 142° (SE) 1,975 5.7 -6.5°
